This demonstration page uses our WeatherBlox Daily Observations layout. Learn more.

Left ArrowRight Arrow

39.51506, -84.39828

Hourly Observations for April 13, 2020

Temp ( °F °C ) Dew Point ( °F °C ) Humidity (%) Winds ( mph kmh ) Pressure ( in mb ) Visibility ( mi km ) Precip ( " mm )
12:15 am 00:15 Cloudy 57 13.8 56 13.4 97 97 Calm 29.45 997 10 16.0934 0 0
12:35 am 00:35 Cloudy 57 13.8 56 13.5 98 98 Calm 29.43 997 10 16.0934 0 0
12:55 am 00:55 Cloudy with Light Rain 57 13.9 56 13.6 98 98 Calm 29.42 996 7 11.26538 0 0
1:15 am 01:15 Cloudy with Drizzle 57 13.8 56 13.5 98 98 WSW 3 6 29.43 997 7 11.26538 0 0
1:35 am 01:35 Cloudy with Drizzle 57 13.7 56 13.5 99 99 Calm 29.4 996 10 16.0934 0 0
1:55 am 01:55 Cloudy with Rain 57 14 57 13.8 99 99 S 6 9 29.4 996 5 8.0467 0 0
2:15 am 02:15 Cloudy with Rain 57 14.1 57 14 99 99 SSW 7 11 29.39 995 2.5 4.02335 0 0
2:35 am 02:35 Cloudy with Light Rain 58 14.4 58 14.3 99 99 SSW 8 13 29.37 995 2.5 4.02335 0 0
2:55 am 02:55 Cloudy with Drizzle 58 14.4 58 14.3 99 99 SSW 7 11 29.36 994 3.5 5.63269 0 0
3:15 am 03:15 Cloudy with Nearby Thunderstorms 58 14.5 58 14.3 99 99 SSW 7 11 29.36 994 3.5 5.63269 0 0
3:35 am 03:35 Cloudy with Light Thunderstorms 58 14.3 58 14.2 99 99 SW 6 9 29.37 995 2.5 4.02335 0 0
3:55 am 03:55 Cloudy with Nearby Thunderstorms 58 14.6 58 14.5 99 99 SW 10 17 29.39 995 2 3.21868 0 0
4:15 am 04:15 Cloudy with Rain 58 14.5 58 14.4 99 99 SW 9 15 29.4 996 4 6.43736 0 0
4:35 am 04:35 Cloudy with Light Rain 58 14.6 58 14.3 98 98 SW 10 17 29.39 995 7 11.26538 0 0
4:55 am 04:55 Cloudy 58 14.5 57 14.1 97 97 WSW 9 15 29.38 995 10 16.0934 0 0
5:15 am 05:15 Cloudy 58 14.4 57 14 97 97 WSW 6 9 29.35 994 10 16.0934 0 0
5:35 am 05:35 Cloudy with Light Rain 58 14.3 57 13.9 97 97 WSW 7 11 29.35 994 7 11.26538 0 0
5:55 am 05:55 Cloudy with Light Rain 58 14.2 57 13.9 98 98 W 6 9 29.36 994 10 16.0934 0 0
6:15 am 06:15 Cloudy 58 14.2 57 13.7 97 97 WSW 10 17 29.38 995 10 16.0934 0 0
6:35 am 06:35 Cloudy 57 14 56 13.2 95 95 W 14 22 29.39 995 10 16.0934 0 0
6:55 am 06:55 Cloudy 57 13.7 55 12.7 94 94 WNW 20 31 29.4 996 10 16.0934 0 0
7:15 am 07:15 Cloudy 56 13.5 54 12.4 93 93 W 14 22 29.42 996 10 16.0934 0 0
7:35 am 07:35 Cloudy 56 13.4 54 12.1 92 92 W 13 20 29.43 997 10 16.0934 0 0
7:55 am 07:55 Cloudy 56 13.3 54 12 92 92 W 15 24 29.45 997 10 16.0934 0 0
8:15 am 08:15 Cloudy 56 13.3 53 11.9 91 91 W 15 24 29.47 998 10 16.0934 0 0
8:35 am 08:35 Cloudy 56 13.2 53 11.9 92 92 W 14 22 29.49 999 10 16.0934 0 0
8:55 am 08:55 Cloudy with Mist and Fog 54 12.2 51 10.8 91 91 WNW 22 35 29.53 1000 4 6.43736 0 0
9:15 am 09:15 Cloudy 49 9.7 46 7.8 88 88 W 23 37 29.58 1002 10 16.0934 0 0
9:35 am 09:35 Cloudy with Mist and Fog 47 8.3 44 6.8 90 90 W 25 41 29.6 1002 7 11.26538 0 0
9:55 am 09:55 Cloudy 45 7.4 42 5.4 87 87 W 31 50 29.66 1004 10 16.0934 0 0
10:15 am 10:15 Cloudy 44 6.7 40 4.5 86 86 W 23 37 29.69 1005 10 16.0934 0 0
10:35 am 10:35 Cloudy 43 6.1 39 3.7 85 85 W 25 41 29.72 1006 10 16.0934 0 0
10:55 am 10:55 Cloudy 42 5.6 37 3 84 84 W 20 31 29.76 1008 10 16.0934 0 0
11:15 am 11:15 Cloudy 43 6 37 2.9 81 81 W 21 33 29.79 1009 10 16.0934 0 0
11:35 am 11:35 Cloudy 42 5.8 37 2.8 81 81 W 22 35 29.82 1010 10 16.0934 0 0
11:55 am 11:55 Cloudy 42 5.5 35 1.7 77 77 WNW 22 35 29.86 1011 10 16.0934 0 0
12:15 pm 12:15 Cloudy 43 6.1 34 1.3 72 72 W 25 41 29.88 1012 10 16.0934 0 0
12:35 pm 12:35 Cloudy with Drizzle 41 4.8 35 1.7 81 81 W 23 37 29.9 1013 7 11.26538 0 0
12:55 pm 12:55 Cloudy 41 4.8 34 0.9 76 76 W 18 30 29.91 1013 10 16.0934 0 0
1:15 pm 13:15 Cloudy 42 5.5 33 0.6 71 71 WNW 22 35 29.92 1013 10 16.0934 0 0
1:35 pm 13:35 Cloudy 42 5.7 34 1 72 72 W 22 35 29.93 1014 10 16.0934 0 0
1:55 pm 13:55 Cloudy 41 5.2 33 0.4 71 71 W 16 26 29.96 1015 10 16.0934 0 0
2:15 pm 14:15 Cloudy 42 5.5 33 0.4 70 70 W 20 31 29.96 1015 10 16.0934 0 0
2:35 pm 14:35 Cloudy 42 5.6 32 0.2 69 69 W 21 33 29.98 1015 10 16.0934 0 0
2:55 pm 14:55 Cloudy 42 5.6 32 0.2 69 69 W 20 31 30 1016 10 16.0934 0 0
3:15 pm 15:15 Cloudy 42 5.6 32 0.1 68 68 W 20 31 30.01 1016 10 16.0934 0 0
3:35 pm 15:35 Cloudy 43 5.9 31 -0.4 64 64 W 20 31 30.02 1017 10 16.0934 0 0
3:55 pm 15:55 Cloudy 43 6.3 32 -0.2 63 63 W 18 30 30.02 1017 10 16.0934 0 0
4:15 pm 16:15 Mostly Cloudy 45 7.1 31 -0.5 59 59 W 14 22 30.03 1017 10 16.0934 0 0
4:35 pm 16:35 Mostly Cloudy 46 7.9 33 0.3 59 59 W 16 26 30.03 1017 10 16.0934 0 0
4:55 pm 16:55 Mostly Cloudy 46 7.6 30 -1 55 55 W 21 33 30.06 1018 10 16.0934 0 0
5:15 pm 17:15 Mostly Cloudy 45 7.2 31 -0.6 58 58 W 20 31 30.06 1018 10 16.0934 0 0
5:35 pm 17:35 Partly Cloudy 45 7.3 30 -0.9 56 56 W 17 28 30.06 1018 10 16.0934 0 0
5:55 pm 17:55 Mostly Cloudy 44 6.6 29 -1.7 56 56 W 16 26 30.08 1019 10 16.0934 0 0
6:15 pm 18:15 Partly Cloudy 45 7.4 30 -1.1 55 55 W 13 20 30.09 1019 10 16.0934 0 0
6:35 pm 18:35 Partly Cloudy 45 7.1 29 -1.9 53 53 W 14 22 30.1 1019 10 16.0934 0 0
6:55 pm 18:55 Cloudy 45 7 29 -1.7 54 54 W 12 19 30.11 1020 10 16.0934 0 0
7:15 pm 19:15 Cloudy 45 7 29 -1.6 55 55 WSW 9 15 30.11 1020 10 16.0934 0 0
7:35 pm 19:35 Cloudy 44 6.5 31 -0.8 60 60 SW 7 11 30.12 1020 10 16.0934 0 0
7:55 pm 19:55 Partly Cloudy 43 6 30 -1 61 61 SW 7 11 30.12 1020 10 16.0934 0 0
8:15 pm 20:15 Mostly Cloudy 42 5.7 30 -0.9 63 63 SW 6 9 30.13 1020 10 16.0934 0 0
8:35 pm 20:35 Partly Cloudy 40 4.6 32 -0.2 71 71 W 3 6 30.14 1021 10 16.0934 0 0
8:55 pm 20:55 Partly Cloudy 42 5.4 31 -0.4 67 67 WSW 5 7 30.15 1021 10 16.0934 0 0
9:15 pm 21:15 Clear 38 3.1 32 -0.1 80 80 WSW 3 6 30.17 1022 10 16.0934 0 0
9:35 pm 21:35 undefined 38 3.3 35 1.6 89 89 W 3 6 30.18 1022 N/A 0 0
9:55 pm 21:55 undefined 36 2.3 33 0.7 89 89 WSW 3 6 30.19 1022 N/A 0 0
10:15 pm 22:15 undefined 36 2.4 34 1.1 91 91 Calm 30.19 1022 N/A 0 0
10:35 pm 22:35 Clear 36 2.3 35 1.5 95 95 Calm 30.2 1023 10 16.0934 0 0
10:55 pm 22:55 Clear 37 2.8 35 1.8 93 93 Calm 30.21 1023 10 16.0934 0 0
11:15 pm 23:15 Clear 38 3.5 34 1.3 86 86 W 3 6 30.22 1023 10 16.0934 0 0
11:35 pm 23:35 Clear 40 4.5 29 -1.7 64 64 WNW 7 11 30.2 1023 10 16.0934 0 0
11:55 pm 23:55 Clear 40 4.6 27 -2.7 59 59 WNW 8 13 30.2 1023 10 16.0934 0 0

Powered by AerisWeather